Time,TemperatureF,DewpointF,PressureIn,WindDirection,WindDirectionDegrees,WindSpeedMPH,WindSpeedGustMPH,Humidity,HourlyPrecipIn,Conditions,Clouds,dailyrainin,SoftwareType,DateUTC
2013-12-04 00:06:00,30.8,29.5,29.96,NW,325,0.0,-999.0,95,0.00,,,0.00,Wunderground v.1.15,2013-12-04 05:06:00,
2013-12-04 00:08:00,30.7,29.4,29.96,NW,325,0.0,-999.0,95,0.00,,,0.00,Wunderground v.1.15,2013-12-04 05:08:00,
2013-12-04 00:11:00,30.6,29.3,29.96,NW,325,0.0,-999.0,95,0.00,,,0.00,Wunderground v.1.15,2013-12-04 05:11:00,
2013-12-04 00:16:00,30.6,29.3,29.96,NW,325,0.0,-999.0,95,0.00,,,0.00,Wunderground v.1.15,2013-12-04 05:16:00,
2013-12-04 00:22:00,30.5,29.2,29.97,NW,325,0.0,-999.0,95,0.00,,,0.00,Wunderground v.1.15,2013-12-04 05:22:00,
2013-12-04 00:26:00,30.5,29.5,29.97,NW,325,0.0,-999.0,96,0.00,,,0.00,Wunderground v.1.15,2013-12-04 05:26:00,
2013-12-04 00:30:00,30.5,29.5,29.97,NW,325,0.0,-999.0,96,0.00,,,0.00,Wunderground v.1.15,2013-12-04 05:30:00,
2013-12-04 00:36:00,30.6,29.6,29.97,NW,325,0.0,-999.0,96,0.00,,,0.00,Wunderground v.1.15,2013-12-04 05:36:00,
2013-12-04 00:40:00,30.6,29.6,29.97,NW,325,0.0,-999.0,96,0.00,,,0.00,Wunderground v.1.15,2013-12-04 05:40:00,
2013-12-04 00:46:00,30.6,29.6,29.97,NW,325,0.0,-999.0,96,0.00,,,0.00,Wunderground v.1.15,2013-12-04 05:46:00,
2013-12-04 00:52:00,30.4,29.4,29.98,NW,325,0.0,-999.0,96,0.00,,,0.00,Wunderground v.1.15,2013-12-04 05:52:00,
2013-12-04 00:58:00,30.1,28.8,29.98,NW,325,0.0,-999.0,95,0.00,,,0.00,Wunderground v.1.15,2013-12-04 05:58:00,
2013-12-04 01:04:00,29.8,28.8,29.98,NW,325,0.0,-999.0,96,0.00,,,0.00,Wunderground v.1.15,2013-12-04 06:04:00,
2013-12-04 01:10:00,29.7,28.7,29.98,NW,325,0.0,-999.0,96,0.00,,,0.00,Wunderground v.1.15,2013-12-04 06:10:00,
2013-12-04 01:16:00,29.6,28.6,29.98,NW,325,0.0,-999.0,96,0.00,,,0.00,Wunderground v.1.15,2013-12-04 06:16:00,
2013-12-04 01:22:00,29.4,28.4,29.98,NW,325,0.0,-999.0,96,0.00,,,0.00,Wunderground v.1.15,2013-12-04 06:22:00,
2013-12-04 01:28:00,29.3,28.3,29.98,NW,325,0.0,-999.0,96,0.00,,,0.00,Wunderground v.1.15,2013-12-04 06:28:00,
2013-12-04 01:34:00,29.2,28.2,29.98,NW,325,0.0,-999.0,96,0.00,,,0.00,Wunderground v.1.15,2013-12-04 06:34:00,
2013-12-04 01:40:00,29.3,28.3,29.98,NW,325,0.0,-999.0,96,0.00,,,0.00,Wunderground v.1.15,2013-12-04 06:40:00,
2013-12-04 01:46:00,29.3,28.3,29.98,NW,325,0.0,-999.0,96,0.00,,,0.00,Wunderground v.1.15,2013-12-04 06:46:00,
2013-12-04 01:52:00,29.3,28.3,29.99,NW,325,0.0,-999.0,96,0.00,,,0.00,Wunderground v.1.15,2013-12-04 06:52:00,
2013-12-04 01:58:00,29.3,28.3,29.99,NW,325,0.0,-999.0,96,0.00,,,0.00,Wunderground v.1.15,2013-12-04 06:58:00,
2013-12-04 02:04:00,29.3,28.3,29.99,NW,325,0.0,-999.0,96,0.00,,,0.00,Wunderground v.1.15,2013-12-04 07:04:00,
2013-12-04 02:10:00,29.3,28.3,29.99,NW,325,0.0,-999.0,96,0.00,,,0.00,Wunderground v.1.15,2013-12-04 07:10:00,
2013-12-04 02:16:00,29.2,28.2,29.99,NW,325,0.0,-999.0,96,0.00,,,0.00,Wunderground v.1.15,2013-12-04 07:16:00,
2013-12-04 02:22:00,29.1,28.1,29.99,NW,325,0.0,-999.0,96,0.00,,,0.00,Wunderground v.1.15,2013-12-04 07:22:00,
2013-12-04 02:28:00,29.1,28.1,29.99,NW,325,0.0,-999.0,96,0.00,,,0.00,Wunderground v.1.15,2013-12-04 07:28:00,
2013-12-04 02:34:00,29.1,28.1,29.99,NW,325,0.0,-999.0,96,0.00,,,0.00,Wunderground v.1.15,2013-12-04 07:34:00,
2013-12-04 02:40:00,29.2,28.2,29.99,NW,325,0.0,-999.0,96,0.00,,,0.00,Wunderground v.1.15,2013-12-04 07:40:00,
2013-12-04 02:46:00,29.3,28.3,29.99,NW,325,0.0,-999.0,96,0.00,,,0.00,Wunderground v.1.15,2013-12-04 07:46:00,
2013-12-04 02:52:00,29.3,28.3,29.99,NW,325,0.0,-999.0,96,0.00,,,0.00,Wunderground v.1.15,2013-12-04 07:52:00,
2013-12-04 02:58:00,29.3,28.3,29.99,NW,325,0.0,-999.0,96,0.00,,,0.00,Wunderground v.1.15,2013-12-04 07:58:00,
2013-12-04 03:04:00,29.3,28.3,29.99,NW,325,0.0,-999.0,96,0.00,,,0.00,Wunderground v.1.15,2013-12-04 08:04:00,
2013-12-04 03:10:00,29.3,28.6,29.99,NW,325,0.0,-999.0,97,0.00,,,0.00,Wunderground v.1.15,2013-12-04 08:10:00,
2013-12-04 03:16:00,29.3,28.3,29.99,NW,325,0.0,-999.0,96,0.00,,,0.00,Wunderground v.1.15,2013-12-04 08:16:00,
2013-12-04 03:22:00,29.4,28.4,29.99,NW,325,0.0,-999.0,96,0.00,,,0.00,Wunderground v.1.15,2013-12-04 08:22:00,
2013-12-04 03:28:00,29.3,28.3,29.99,NW,325,0.0,-999.0,96,0.00,,,0.00,Wunderground v.1.15,2013-12-04 08:28:00,
2013-12-04 03:34:00,29.3,28.6,29.99,NW,325,0.0,-999.0,97,0.00,,,0.00,Wunderground v.1.15,2013-12-04 08:34:00,
2013-12-04 03:40:00,29.3,28.3,29.99,NW,325,0.0,-999.0,96,0.00,,,0.00,Wunderground v.1.15,2013-12-04 08:40:00,
2013-12-04 03:46:00,29.3,28.3,29.99,NW,325,0.0,-999.0,96,0.00,,,0.00,Wunderground v.1.15,2013-12-04 08:46:00,
2013-12-04 03:52:00,29.4,28.7,29.99,NW,325,0.0,-999.0,97,0.00,,,0.00,Wunderground v.1.15,2013-12-04 08:52:00,
2013-12-04 03:58:00,29.4,28.7,29.99,NW,325,0.0,-999.0,97,0.00,,,0.00,Wunderground v.1.15,2013-12-04 08:58:00,
2013-12-04 04:04:00,29.5,28.8,29.99,NW,325,0.0,-999.0,97,0.00,,,0.00,Wunderground v.1.15,2013-12-04 09:04:00,
2013-12-04 04:10:00,29.7,29.0,30.00,NW,325,0.0,-999.0,97,0.00,,,0.00,Wunderground v.1.15,2013-12-04 09:10:00,
2013-12-04 04:16:00,29.8,29.1,30.00,NW,325,0.0,-999.0,97,0.00,,,0.00,Wunderground v.1.15,2013-12-04 09:16:00,
2013-12-04 04:22:00,29.8,29.1,30.00,NW,325,0.0,-999.0,97,0.00,,,0.00,Wunderground v.1.15,2013-12-04 09:22:00,
2013-12-04 04:28:00,29.9,29.2,30.00,NW,325,0.0,-999.0,97,0.00,,,0.00,Wunderground v.1.15,2013-12-04 09:28:00,
2013-12-04 04:34:00,29.8,29.1,30.00,NW,325,0.0,-999.0,97,0.00,,,0.00,Wunderground v.1.15,2013-12-04 09:34:00,
2013-12-04 04:40:00,29.7,28.7,30.01,NW,325,0.0,-999.0,96,0.00,,,0.00,Wunderground v.1.15,2013-12-04 09:40:00,
2013-12-04 04:46:00,29.6,28.6,30.01,NW,325,0.0,-999.0,96,0.00,,,0.00,Wunderground v.1.15,2013-12-04 09:46:00,
2013-12-04 04:52:00,29.5,28.5,30.01,NW,325,0.0,-999.0,96,0.00,,,0.00,Wunderground v.1.15,2013-12-04 09:52:00,
2013-12-04 04:58:00,29.4,28.4,30.01,NW,325,0.0,-999.0,96,0.00,,,0.00,Wunderground v.1.15,2013-12-04 09:58:00,
2013-12-04 05:04:00,29.3,28.3,30.01,NW,325,0.0,-999.0,96,0.00,,,0.00,Wunderground v.1.15,2013-12-04 10:04:00,
2013-12-04 05:10:00,29.1,28.1,30.01,NW,325,0.0,-999.0,96,0.00,,,0.00,Wunderground v.1.15,2013-12-04 10:10:00,
2013-12-04 05:16:00,29.0,28.0,30.02,NW,325,0.0,-999.0,96,0.00,,,0.00,Wunderground v.1.15,2013-12-04 10:16:00,
2013-12-04 05:22:00,29.0,28.0,30.02,NW,325,0.0,-999.0,96,0.00,,,0.00,Wunderground v.1.15,2013-12-04 10:22:00,
2013-12-04 05:28:00,29.2,28.2,30.02,NW,325,0.0,-999.0,96,0.00,,,0.00,Wunderground v.1.15,2013-12-04 10:28:00,
2013-12-04 05:34:00,29.5,28.5,30.02,NW,325,0.0,-999.0,96,0.00,,,0.00,Wunderground v.1.15,2013-12-04 10:34:00,
2013-12-04 05:40:00,29.8,28.8,30.03,NW,325,0.0,-999.0,96,0.00,,,0.00,Wunderground v.1.15,2013-12-04 10:40:00,
2013-12-04 05:46:00,30.0,29.0,30.03,NW,325,0.0,-999.0,96,0.00,,,0.00,Wunderground v.1.15,2013-12-04 10:46:00,
2013-12-04 05:52:00,30.1,29.1,30.03,NW,325,0.0,-999.0,96,0.00,,,0.00,Wunderground v.1.15,2013-12-04 10:52:00,
2013-12-04 05:58:00,30.3,29.3,30.03,NW,325,0.0,-999.0,96,0.00,,,0.00,Wunderground v.1.15,2013-12-04 10:58:00,
2013-12-04 06:04:00,30.6,29.6,30.04,NW,325,0.0,-999.0,96,0.00,,,0.00,Wunderground v.1.15,2013-12-04 11:04:00,
2013-12-04 06:10:00,30.8,29.8,30.04,NW,325,0.0,-999.0,96,0.00,,,0.00,Wunderground v.1.15,2013-12-04 11:10:00,
2013-12-04 06:16:00,31.0,30.0,30.05,NW,325,0.0,-999.0,96,0.00,,,0.00,Wunderground v.1.15,2013-12-04 11:16:00,
2013-12-04 06:22:00,31.2,30.2,30.05,NW,325,0.0,-999.0,96,0.00,,,0.00,Wunderground v.1.15,2013-12-04 11:22:00,
2013-12-04 06:28:00,31.6,30.6,30.05,NW,325,0.0,-999.0,96,0.00,,,0.00,Wunderground v.1.15,2013-12-04 11:28:00,
2013-12-04 06:34:00,31.8,30.8,30.05,NW,325,0.0,-999.0,96,0.00,,,0.00,Wunderground v.1.15,2013-12-04 11:34:00,
2013-12-04 06:40:00,31.9,30.6,30.05,NW,325,0.0,-999.0,95,0.00,,,0.00,Wunderground v.1.15,2013-12-04 11:40:00,
2013-12-04 06:46:00,32.0,30.7,30.05,NW,325,0.0,-999.0,95,0.00,,,0.00,Wunderground v.1.15,2013-12-04 11:46:00,
2013-12-04 06:52:00,32.0,30.7,30.06,NW,325,0.0,-999.0,95,0.00,,,0.00,Wunderground v.1.15,2013-12-04 11:52:00,
2013-12-04 06:58:00,32.0,30.7,30.06,NW,325,0.0,-999.0,95,0.00,,,0.00,Wunderground v.1.15,2013-12-04 11:58:00,
2013-12-04 07:04:00,31.9,30.4,30.06,NW,325,0.0,-999.0,94,0.00,,,0.00,Wunderground v.1.15,2013-12-04 12:04:00,
2013-12-04 07:10:00,31.8,30.3,30.06,NW,325,0.0,-999.0,94,0.00,,,0.00,Wunderground v.1.15,2013-12-04 12:10:00,
2013-12-04 07:16:00,31.6,30.1,30.06,NW,325,0.0,-999.0,94,0.00,,,0.00,Wunderground v.1.15,2013-12-04 12:16:00,
2013-12-04 07:22:00,31.6,30.1,30.06,NW,325,0.0,-999.0,94,0.00,,,0.00,Wunderground v.1.15,2013-12-04 12:22:00,
2013-12-04 07:28:00,31.5,30.0,30.06,NW,325,0.0,-999.0,94,0.00,,,0.00,Wunderground v.1.15,2013-12-04 12:28:00,
2013-12-04 07:34:00,31.4,29.9,30.06,NW,325,0.0,-999.0,94,0.00,,,0.00,Wunderground v.1.15,2013-12-04 12:34:00,
2013-12-04 07:40:00,31.4,30.1,30.06,NW,325,0.0,-999.0,95,0.00,,,0.00,Wunderground v.1.15,2013-12-04 12:40:00,
2013-12-04 07:46:00,31.5,30.2,30.06,NW,325,0.0,-999.0,95,0.00,,,0.00,Wunderground v.1.15,2013-12-04 12:46:00,
2013-12-04 07:52:00,31.6,30.3,30.06,NW,325,0.0,-999.0,95,0.00,,,0.00,Wunderground v.1.15,2013-12-04 12:52:00,
2013-12-04 07:58:00,31.7,30.4,30.06,NW,325,0.0,-999.0,95,0.00,,,0.00,Wunderground v.1.15,2013-12-04 12:58:00,
2013-12-04 08:04:00,31.8,30.5,30.06,NW,325,0.0,-999.0,95,0.00,,,0.00,Wunderground v.1.15,2013-12-04 13:04:00,
2013-12-04 08:10:00,32.0,30.7,30.06,NW,325,0.0,-999.0,95,0.00,,,0.00,Wunderground v.1.15,2013-12-04 13:10:00,
2013-12-04 08:16:00,32.3,30.8,30.06,NW,325,0.0,-999.0,94,0.00,,,0.00,Wunderground v.1.15,2013-12-04 13:16:00,
2013-12-04 08:22:00,32.6,31.1,30.07,NW,325,0.0,-999.0,94,0.00,,,0.00,Wunderground v.1.15,2013-12-04 13:22:00,
2013-12-04 08:28:00,32.9,31.4,30.07,NW,325,0.0,-999.0,94,0.00,,,0.00,Wunderground v.1.15,2013-12-04 13:28:00,
2013-12-04 08:34:00,33.2,31.7,30.07,NW,325,0.0,-999.0,94,0.00,,,0.00,Wunderground v.1.15,2013-12-04 13:34:00,
2013-12-04 08:41:00,33.5,31.7,30.06,NW,325,0.0,-999.0,93,0.00,,,0.00,Wunderground v.1.15,2013-12-04 13:41:00,
2013-12-04 08:46:00,33.8,31.7,30.06,NW,325,0.0,-999.0,92,0.00,,,0.00,Wunderground v.1.15,2013-12-04 13:46:00,
2013-12-04 08:52:00,34.1,32.0,30.05,NW,325,0.0,-999.0,92,0.00,,,0.00,Wunderground v.1.15,2013-12-04 13:52:00,
2013-12-04 08:58:00,34.4,32.0,30.05,NW,325,0.0,-999.0,91,0.00,,,0.00,Wunderground v.1.15,2013-12-04 13:58:00,
2013-12-04 09:04:00,34.4,31.8,30.05,NW,325,0.0,-999.0,90,0.00,,,0.00,Wunderground v.1.15,2013-12-04 14:04:00,
2013-12-04 09:11:00,35.0,32.1,30.06,NW,325,0.0,-999.0,89,0.00,,,0.00,Wunderground v.1.15,2013-12-04 14:11:00,
2013-12-04 09:16:00,35.3,32.1,30.06,NW,325,1.0,-999.0,88,0.00,,,0.00,Wunderground v.1.15,2013-12-04 14:16:00,
2013-12-04 09:22:00,35.6,32.1,30.06,NW,325,0.0,-999.0,87,0.00,,,0.00,Wunderground v.1.15,2013-12-04 14:22:00,
2013-12-04 09:28:00,35.9,32.4,30.07,NW,325,0.0,-999.0,87,0.00,,,0.00,Wunderground v.1.15,2013-12-04 14:28:00,
2013-12-04 09:34:00,36.1,32.6,30.07,NW,325,0.0,-999.0,87,0.00,,,0.00,Wunderground v.1.15,2013-12-04 14:34:00,
2013-12-04 09:40:00,36.4,32.6,30.07,NW,325,0.0,-999.0,86,0.00,,,0.00,Wunderground v.1.15,2013-12-04 14:40:00,
2013-12-04 09:46:00,36.7,32.3,30.07,NW,325,0.0,-999.0,84,0.00,,,0.00,Wunderground v.1.15,2013-12-04 14:46:00,
2013-12-04 09:52:00,37.0,32.3,30.07,NW,325,0.0,-999.0,83,0.00,,,0.00,Wunderground v.1.15,2013-12-04 14:52:00,
2013-12-04 09:58:00,37.3,32.3,30.07,NW,325,0.0,-999.0,82,0.00,,,0.00,Wunderground v.1.15,2013-12-04 14:58:00,
2013-12-04 10:04:00,37.7,32.7,30.07,NW,311,0.0,-999.0,82,0.00,,,0.00,Wunderground v.1.15,2013-12-04 15:04:00,
2013-12-04 10:10:00,38.1,33.1,30.06,NW,312,0.0,-999.0,82,0.00,,,0.00,Wunderground v.1.15,2013-12-04 15:10:00,
2013-12-04 10:16:00,38.6,33.6,30.06,ENE,61,0.0,-999.0,82,0.00,,,0.00,Wunderground v.1.15,2013-12-04 15:16:00,
2013-12-04 10:22:00,38.9,33.6,30.07,ENE,59,1.0,-999.0,81,0.00,,,0.00,Wunderground v.1.15,2013-12-04 15:22:00,
2013-12-04 10:28:00,39.3,34.0,30.07,ENE,59,0.0,-999.0,81,0.00,,,0.00,Wunderground v.1.15,2013-12-04 15:28:00,
2013-12-04 10:34:00,39.8,33.8,30.07,NW,326,0.0,-999.0,79,0.00,,,0.00,Wunderground v.1.15,2013-12-04 15:34:00,
2013-12-04 10:40:00,40.0,34.0,30.07,NW,325,0.0,-999.0,79,0.00,,,0.00,Wunderground v.1.15,2013-12-04 15:40:00,
2013-12-04 10:46:00,40.2,33.9,30.07,NW,325,1.0,-999.0,78,0.00,,,0.00,Wunderground v.1.15,2013-12-04 15:46:00,
2013-12-04 10:52:00,40.3,34.0,30.07,NW,325,1.0,-999.0,78,0.00,,,0.00,Wunderground v.1.15,2013-12-04 15:52:00,
2013-12-04 10:58:00,40.6,34.3,30.08,NW,323,0.0,-999.0,78,0.00,,,0.00,Wunderground v.1.15,2013-12-04 15:58:00,
2013-12-04 11:04:00,41.7,35.0,30.08,NW,323,1.0,-999.0,77,0.00,,,0.00,Wunderground v.1.15,2013-12-04 16:04:00,
2013-12-04 11:11:00,42.8,36.1,30.08,NW,307,2.0,-999.0,77,0.00,,,0.00,Wunderground v.1.15,2013-12-04 16:11:00,
2013-12-04 11:16:00,42.9,35.2,30.08,WNW,303,2.0,-999.0,74,0.00,,,0.00,Wunderground v.1.15,2013-12-04 16:16:00,
2013-12-04 11:39:00,43.7,36.6,30.08,WNW,303,0.0,-999.0,76,0.00,,,0.00,Wunderground v.1.15,2013-12-04 16:39:00,
2013-12-04 11:46:00,44.5,37.4,30.08,WNW,303,1.0,-999.0,76,0.00,,,0.00,Wunderground v.1.15,2013-12-04 16:46:00,
2013-12-04 11:52:00,45.2,37.4,30.08,NW,317,1.0,-999.0,74,0.00,,,0.00,Wunderground v.1.15,2013-12-04 16:52:00,
2013-12-04 11:58:00,45.6,38.1,30.08,NW,317,1.0,-999.0,75,0.00,,,0.00,Wunderground v.1.15,2013-12-04 16:58:00,
2013-12-04 12:04:00,46.0,38.2,30.07,NNE,28,1.0,-999.0,74,0.00,,,0.00,Wunderground v.1.15,2013-12-04 17:04:00,
2013-12-04 12:12:00,46.2,38.0,30.07,North,355,3.0,-999.0,73,0.00,,,0.00,Wunderground v.1.15,2013-12-04 17:12:00,
2013-12-04 12:18:00,46.4,39.2,30.07,WNW,289,2.0,-999.0,76,0.00,,,0.00,Wunderground v.1.15,2013-12-04 17:18:00,
2013-12-04 12:24:00,46.8,38.6,30.07,West,273,1.0,-999.0,73,0.00,,,0.00,Wunderground v.1.15,2013-12-04 17:24:00,
2013-12-04 12:30:00,47.1,38.5,30.07,West,272,1.0,-999.0,72,0.00,,,0.00,Wunderground v.1.15,2013-12-04 17:30:00,
2013-12-04 12:36:00,47.0,38.4,30.06,WNW,294,2.0,-999.0,72,0.00,,,0.00,Wunderground v.1.15,2013-12-04 17:36:00,
2013-12-04 12:42:00,47.3,38.7,30.06,WNW,294,1.0,-999.0,72,0.00,,,0.00,Wunderground v.1.15,2013-12-04 17:42:00,
2013-12-04 12:48:00,47.5,38.9,30.05,WNW,294,1.0,-999.0,72,0.00,,,0.00,Wunderground v.1.15,2013-12-04 17:48:00,
2013-12-04 12:56:00,47.9,38.9,30.05,North,355,1.0,-999.0,71,0.00,,,0.00,Wunderground v.1.15,2013-12-04 17:56:00,
2013-12-04 13:02:00,48.5,39.5,30.05,NNW,340,0.0,-999.0,71,0.00,,,0.00,Wunderground v.1.15,2013-12-04 18:02:00,
2013-12-04 13:08:00,49.1,39.7,30.05,NW,325,1.0,-999.0,70,0.00,,,0.00,Wunderground v.1.15,2013-12-04 18:08:00,
2013-12-04 13:14:00,49.0,39.6,30.04,NW,317,1.0,-999.0,70,0.00,,,0.00,Wunderground v.1.15,2013-12-04 18:14:00,
2013-12-04 13:20:00,49.2,39.5,30.04,NW,317,1.0,-999.0,69,0.00,,,0.00,Wunderground v.1.15,2013-12-04 18:20:00,
2013-12-04 13:26:00,49.6,39.8,30.04,NW,317,0.0,-999.0,69,0.00,,,0.00,Wunderground v.1.15,2013-12-04 18:26:00,
2013-12-04 13:32:00,50.0,40.2,30.04,NW,317,1.0,-999.0,69,0.00,,,0.00,Wunderground v.1.15,2013-12-04 18:32:00,
2013-12-04 13:38:00,50.0,40.2,30.04,NNW,330,1.0,-999.0,69,0.00,,,0.00,Wunderground v.1.15,2013-12-04 18:38:00,
2013-12-04 13:44:00,50.7,40.5,30.03,SSW,203,2.0,-999.0,68,0.00,,,0.00,Wunderground v.1.15,2013-12-04 18:44:00,
2013-12-04 13:50:00,51.3,41.1,30.03,WSW,257,1.0,-999.0,68,0.00,,,0.00,Wunderground v.1.15,2013-12-04 18:50:00,
2013-12-04 13:56:00,51.6,41.0,30.03,WNW,299,1.0,-999.0,67,0.00,,,0.00,Wunderground v.1.15,2013-12-04 18:56:00,
2013-12-04 14:02:00,51.1,40.5,30.03,NW,322,1.0,-999.0,67,0.00,,,0.00,Wunderground v.1.15,2013-12-04 19:02:00,
2013-12-04 14:08:00,51.1,40.9,30.04,NW,322,1.0,-999.0,68,0.00,,,0.00,Wunderground v.1.15,2013-12-04 19:08:00,
2013-12-04 14:14:00,50.9,40.7,30.03,NW,322,1.0,-999.0,68,0.00,,,0.00,Wunderground v.1.15,2013-12-04 19:14:00,
2013-12-04 15:16:00,49.0,39.6,30.06,SE,138,0.0,-999.0,70,0.00,,,0.00,Wunderground v.1.15,2013-12-04 20:16:00,
2013-12-04 15:22:00,48.6,39.3,30.06,SW,227,0.0,-999.0,70,0.00,,,0.00,Wunderground v.1.15,2013-12-04 20:22:00,
2013-12-04 15:28:00,48.1,39.1,30.06,SW,228,0.0,-999.0,71,0.00,,,0.00,Wunderground v.1.15,2013-12-04 20:28:00,
2013-12-04 15:34:00,47.7,39.1,30.06,SW,228,0.0,-999.0,72,0.00,,,0.00,Wunderground v.1.15,2013-12-04 20:34:00,
2013-12-04 15:40:00,47.3,38.7,30.06,SW,228,0.0,-999.0,72,0.00,,,0.00,Wunderground v.1.15,2013-12-04 20:40:00,
2013-12-04 15:46:00,47.0,38.8,30.06,SW,228,0.0,-999.0,73,0.00,,,0.00,Wunderground v.1.15,2013-12-04 20:46:00,
2013-12-04 15:52:00,46.5,38.7,30.07,SW,228,0.0,-999.0,74,0.00,,,0.00,Wunderground v.1.15,2013-12-04 20:52:00,
2013-12-04 15:58:00,46.1,38.3,30.07,SW,227,0.0,-999.0,74,0.00,,,0.00,Wunderground v.1.15,2013-12-04 20:58:00,
2013-12-04 16:04:00,45.8,38.3,30.07,SW,228,0.0,-999.0,75,0.00,,,0.00,Wunderground v.1.15,2013-12-04 21:04:00,
2013-12-04 16:10:00,45.2,37.7,30.07,SW,228,0.0,-999.0,75,0.00,,,0.00,Wunderground v.1.15,2013-12-04 21:10:00,
2013-12-04 16:16:00,45.0,37.9,30.07,SW,227,0.0,-999.0,76,0.00,,,0.00,Wunderground v.1.15,2013-12-04 21:16:00,
2013-12-04 16:22:00,44.5,37.7,30.07,SW,227,0.0,-999.0,77,0.00,,,0.00,Wunderground v.1.15,2013-12-04 21:22:00,
2013-12-04 16:28:00,44.2,37.4,30.07,SW,228,0.0,-999.0,77,0.00,,,0.00,Wunderground v.1.15,2013-12-04 21:28:00,
2013-12-04 16:34:00,44.0,37.6,30.07,SW,228,0.0,-999.0,78,0.00,,,0.00,Wunderground v.1.15,2013-12-04 21:34:00,
2013-12-04 16:40:00,43.7,37.3,30.07,SW,227,0.0,-999.0,78,0.00,,,0.00,Wunderground v.1.15,2013-12-04 21:40:00,
2013-12-04 16:46:00,43.4,37.3,30.07,SW,228,0.0,-999.0,79,0.00,,,0.00,Wunderground v.1.15,2013-12-04 21:46:00,
2013-12-04 16:52:00,43.2,37.1,30.07,SW,228,0.0,-999.0,79,0.00,,,0.00,Wunderground v.1.15,2013-12-04 21:52:00,
2013-12-04 16:58:00,43.0,36.9,30.08,SW,228,0.0,-999.0,79,0.00,,,0.00,Wunderground v.1.15,2013-12-04 21:58:00,
2013-12-04 17:04:00,42.7,37.0,30.08,SW,228,0.0,-999.0,80,0.00,,,0.00,Wunderground v.1.15,2013-12-04 22:04:00,
2013-12-04 17:10:00,42.4,36.7,30.08,SW,228,0.0,-999.0,80,0.00,,,0.00,Wunderground v.1.15,2013-12-04 22:10:00,
2013-12-04 17:16:00,42.2,36.8,30.08,SW,228,0.0,-999.0,81,0.00,,,0.00,Wunderground v.1.15,2013-12-04 22:16:00,
2013-12-04 17:22:00,41.8,36.4,30.08,SW,228,0.0,-999.0,81,0.00,,,0.00,Wunderground v.1.15,2013-12-04 22:22:00,
2013-12-04 17:28:00,41.6,36.5,30.08,SW,228,0.0,-999.0,82,0.00,,,0.00,Wunderground v.1.15,2013-12-04 22:28:00,
2013-12-04 17:34:00,41.3,36.2,30.09,SW,227,0.0,-999.0,82,0.00,,,0.00,Wunderground v.1.15,2013-12-04 22:34:00,
2013-12-04 17:40:00,41.0,36.2,30.09,SW,228,0.0,-999.0,83,0.00,,,0.00,Wunderground v.1.15,2013-12-04 22:40:00,
2013-12-04 17:46:00,41.0,36.5,30.09,SW,227,0.0,-999.0,84,0.00,,,0.00,Wunderground v.1.15,2013-12-04 22:46:00,
2013-12-04 17:52:00,41.1,36.6,30.10,SW,228,0.0,-999.0,84,0.00,,,0.00,Wunderground v.1.15,2013-12-04 22:52:00,
2013-12-04 17:58:00,41.1,36.6,30.10,SW,227,0.0,-999.0,84,0.00,,,0.00,Wunderground v.1.15,2013-12-04 22:58:00,
2013-12-04 18:04:00,41.1,36.6,30.10,SW,228,0.0,-999.0,84,0.00,,,0.00,Wunderground v.1.15,2013-12-04 23:04:00,
2013-12-04 18:10:00,41.0,36.5,30.10,SW,228,0.0,-999.0,84,0.00,,,0.00,Wunderground v.1.15,2013-12-04 23:10:00,
2013-12-04 18:16:00,40.9,36.4,30.10,SW,227,0.0,-999.0,84,0.00,,,0.00,Wunderground v.1.15,2013-12-04 23:16:00,
2013-12-04 18:22:00,40.7,36.2,30.10,SW,228,0.0,-999.0,84,0.00,,,0.00,Wunderground v.1.15,2013-12-04 23:22:00,
2013-12-04 18:28:00,40.7,36.5,30.10,SW,228,0.0,-999.0,85,0.00,,,0.00,Wunderground v.1.15,2013-12-04 23:28:00,
2013-12-04 18:34:00,40.8,36.6,30.11,SW,228,0.0,-999.0,85,0.00,,,0.00,Wunderground v.1.15,2013-12-04 23:34:00,
2013-12-04 18:40:00,40.8,36.6,30.10,SW,228,0.0,-999.0,85,0.00,,,0.00,Wunderground v.1.15,2013-12-04 23:40:00,
2013-12-04 18:46:00,40.7,36.5,30.10,SW,228,0.0,-999.0,85,0.00,,,0.00,Wunderground v.1.15,2013-12-04 23:46:00,
2013-12-04 18:52:00,40.5,36.3,30.10,SW,228,0.0,-999.0,85,0.00,,,0.00,Wunderground v.1.15,2013-12-04 23:52:00,
2013-12-04 18:58:00,40.4,36.5,30.10,SW,228,0.0,-999.0,86,0.00,,,0.00,Wunderground v.1.15,2013-12-04 23:58:00,
2013-12-04 19:04:00,40.2,36.3,30.10,SW,228,0.0,-999.0,86,0.00,,,0.00,Wunderground v.1.15,2013-12-05 00:04:00,
2013-12-04 19:10:00,40.0,36.2,30.10,SW,228,0.0,-999.0,86,0.00,,,0.00,Wunderground v.1.15,2013-12-05 00:10:00,
2013-12-04 19:16:00,40.0,36.4,30.10,SW,228,0.0,-999.0,87,0.00,,,0.00,Wunderground v.1.15,2013-12-05 00:16:00,
2013-12-04 19:22:00,39.9,36.3,30.11,SW,228,0.0,-999.0,87,0.00,,,0.00,Wunderground v.1.15,2013-12-05 00:22:00,
2013-12-04 19:28:00,39.9,36.3,30.11,SW,227,0.0,-999.0,87,0.00,,,0.00,Wunderground v.1.15,2013-12-05 00:28:00,
2013-12-04 19:34:00,39.8,36.2,30.11,SW,228,0.0,-999.0,87,0.00,,,0.00,Wunderground v.1.15,2013-12-05 00:34:00,
2013-12-04 19:40:00,39.9,36.6,30.11,SW,228,0.0,-999.0,88,0.00,,,0.00,Wunderground v.1.15,2013-12-05 00:40:00,
2013-12-04 19:46:00,40.0,36.7,30.11,SW,227,0.0,-999.0,88,0.00,,,0.00,Wunderground v.1.15,2013-12-05 00:46:00,
2013-12-04 19:52:00,40.1,36.8,30.11,SW,228,0.0,-999.0,88,0.00,,,0.00,Wunderground v.1.15,2013-12-05 00:52:00,
2013-12-04 19:58:00,40.2,36.9,30.11,SW,227,0.0,-999.0,88,0.00,,,0.00,Wunderground v.1.15,2013-12-05 00:58:00,
2013-12-04 20:04:00,40.2,36.6,30.11,SW,227,0.0,-999.0,87,0.00,,,0.00,Wunderground v.1.15,2013-12-05 01:04:00,
2013-12-04 20:10:00,40.2,36.9,30.11,SW,228,0.0,-999.0,88,0.00,,,0.00,Wunderground v.1.15,2013-12-05 01:10:00,
2013-12-04 20:16:00,40.3,37.0,30.11,SW,228,0.0,-999.0,88,0.00,,,0.00,Wunderground v.1.15,2013-12-05 01:16:00,
2013-12-04 22:30:00,41.9,38.9,30.11,SW,227,0.0,-999.0,89,0.00,,,0.00,Wunderground v.1.15,2013-12-05 03:30:00,
2013-12-04 22:36:00,41.8,39.1,30.11,SW,228,0.0,-999.0,90,0.00,,,0.00,Wunderground v.1.15,2013-12-05 03:36:00,
2013-12-04 22:42:00,41.7,39.0,30.10,SW,227,0.0,-999.0,90,0.00,,,0.00,Wunderground v.1.15,2013-12-05 03:42:00,
2013-12-04 22:48:00,41.7,39.3,30.10,SW,228,0.0,-999.0,91,0.00,,,0.00,Wunderground v.1.15,2013-12-05 03:48:00,
2013-12-04 22:54:00,41.7,39.3,30.10,SW,227,0.0,-999.0,91,0.00,,,0.00,Wunderground v.1.15,2013-12-05 03:54:00,
2013-12-04 23:00:00,41.7,39.3,30.11,SW,228,0.0,-999.0,91,0.00,,,0.00,Wunderground v.1.15,2013-12-05 04:00:00,
2013-12-04 23:06:00,41.7,39.5,30.11,SW,227,0.0,-999.0,92,0.00,,,0.00,Wunderground v.1.15,2013-12-05 04:06:00,
2013-12-04 23:12:00,41.8,39.6,30.11,SW,227,0.0,-999.0,92,0.00,,,0.00,Wunderground v.1.15,2013-12-05 04:12:00,
2013-12-04 23:18:00,41.8,39.6,30.11,SW,228,0.0,-999.0,92,0.00,,,0.00,Wunderground v.1.15,2013-12-05 04:18:00,
2013-12-04 23:24:00,41.9,39.7,30.11,SW,228,0.0,-999.0,92,0.00,,,0.00,Wunderground v.1.15,2013-12-05 04:24:00,
2013-12-04 23:32:00,42.2,40.0,30.12,SW,228,0.0,-999.0,92,0.00,,,0.00,Wunderground v.1.15,2013-12-05 04:32:00,
2013-12-04 23:38:00,42.5,40.3,30.13,SW,228,0.0,-999.0,92,0.00,,,0.00,Wunderground v.1.15,2013-12-05 04:38:00,
2013-12-04 23:44:00,42.5,40.3,30.13,SW,228,0.0,-999.0,92,0.00,,,0.00,Wunderground v.1.15,2013-12-05 04:44:00,
2013-12-04 23:50:00,42.5,40.3,30.12,SW,228,0.0,-999.0,92,0.00,,,0.00,Wunderground v.1.15,2013-12-05 04:50:00,
2013-12-04 23:56:00,42.5,40.3,30.12,SW,227,0.0,-999.0,92,0.00,,,0.00,Wunderground v.1.15,2013-12-05 04:56:00,